Location: *
(46.3500°N, 10.9000°E)
Time: 20:59:37
(UTC+00:00)

A-11 Canister half - Pass Details

Date: 24 April 2021
Orbit: 1526 x 1682 km, 47.3° (Epoch: 13 May)

Event Time Altitude Azimuth Distance (km) Brightness Sun altitude
Rises 20:09:06 0° 293° (WNW) 4,938 13.0 -17.4°
Reaches altitude 10° 20:12:35 10° 285° (WNW) 3,949 12.1 -17.9°
Maximum altitude 20:21:29 37° 224° (SW) 2,415 10.0 -19.0°
Enters shadow 20:27:43 19° 171° (S) 3,243 10.2 -19.7°
Drops below altitude 10° 20:30:16 10° 162° (SSE) 3,888 - -20.0°
Sets 20:33:41 0° 154° (SSE) 4,853 - -20.4°
